Helicity
268 285 342 390 445 428 399 415 412 427 466 425 459 382 412 405 462 482 442 276 163 134 103 90 89 96 97 107 109 117 121 120 120 117 114 101 95 85
270 290 360 430 518 478 435 470 503 466 527 497 548 538 461 483 362 310 245 181 121 114 105 72 58 68 75 87 83 78 93 104 105 102 104 107 120 121
294 333 397 456 510 556 540 495 483 474 458 396 514 392 318 269 234 230 174 144 130 76 48 46 59 68 76 77 67 79 93 91 87 94 104 118 139 152
333 397 461 488 541 545 336 326 418 261 335 324 381 302 253 220 154 151 135 126 105 94 75 64 65 74 71 61 69 94 88 88 99 117 107 118 126 126
334 385 414 415 353 338 297 270 317 257 254 249 265 199 167 159 136 102 105 109 110 63 48 55 75 93 96 94 108 93 92 97 85 64 53 50 51 55
373 351 325 288 236 214 199 246 244 239 222 171 171 176 167 136 134 134 132 116 114 100 77 80 107 97 79 82 74 58 50 46 47 50 53 56 55 47
296 271 273 250 182 169 186 183 180 180 153 156 145 142 145 136 120 138 122 116 126 106 123 130 106 88 68 54 42 36 43 59 75 80 79 73 65 57
256 236 245 218 171 177 164 145 133 148 156 155 157 140 123 121 135 145 158 143 144 81 116 77 58 64 71 65 36 37 51 61 67 73 72 71 66 64
196 193 167 157 153 127 128 125 120 121 130 124 115 125 155 158 194 157 129 121 82 45 45 60 63 62 58 57 25 37 46 43 48 48 57 70 65 61
152 110 98 98 112 122 140 135 107 108 116 142 152 164 164 144 120 99 51 25 34 47 55 82 56 63 60 58 39 27 17 33 48 49 60 66 71 57
80 96 92 101 104 102 105 127 125 140 154 155 157 138 101 59 29 34 37 49 59 60 71 65 66 66 79 110 53 28 59 59 62 63 57 42 34 25
62 80 97 113 132 137 153 156 160 170 171 149 116 61 23 20 27 45 57 70 67 74 106 102 80 67 70 101 107 104 79 62 50 58 44 29 17 78
106 135 151 167 173 187 189 150 144 106 74 47 26 21 23 29 42 56 64 79 81 122 119 117 145 108 163 189 148 138 122 120 91 100 28 -1 42 90
129 134 140 153 155 142 115 82 40 21 22 18 19 20 31 37 45 50 47 56 97 135 113 127 209 160 173 187 191 127 133 141 106 81 59 37 3 -25
144 153 130 107 81 51 36 19 14 26 27 25 27 30 34 40 36 38 51 63 83 123 140 135 187 186 200 238 236 176 117 123 88 47 62 89 75 69
118 107 90 54 27 15 16 22 23 24 32 35 36 38 38 46 54 56 58 61 67 75 96 135 156 157 193 204 183 155 152 141 120 138 124 111 101 98
120 92 64 36 39 43 35 28 31 35 40 43 45 48 50 54 58 65 70 71 90 92 88 107 118 140 191 190 189 187 122 136 140 134 105 118 133 129
93 79 51 49 46 37 31 36 37 37 42 45 46 49 54 60 62 65 74 85 92 96 107 104 105 123 146 160 135 174 150 146 149 121 109 91 91 94
82 54 48 45 38 34 37 42 44 45 50 48 51 56 61 65 59 66 71 79 86 95 107 119 131 134 70 122 135 99 121 138 115 113 124 119 113 82
53 44 40 34 33 38 43 48 51 50 50 53 59 62 74 72 70 75 76 97 111 114 135 131 134 149 160 23 35 150 122 117 158 152 123 100 100 67
41 34 30 31 39 44 46 49 49 53 54 60 64 68 68 73 80 81 87 67 84 136 147 150 161 78 148 89 151 175 146 151 167 159 135 96 59 42
29 24 23 31 44 48 49 51 52 52 56 61 65 74 78 86 98 92 103 114 126 149 154 180 149 139 178 162 124 140 136 138 147 120 99 104 102 116
21 20 26 33 41 45 51 54 56 62 65 72 84 87 88 95 103 117 117 128 149 154 151 149 140 170 193 191 148 156 140 121 122 104 110 82 99 140
Wind_Speed
62 62 62 59 58 58 57 54 58 65 65 57 60 51 49 46 50 58 67 73 76 77 77 82 86 88 90 89 89 89 88 87 88 88 87 87 89 90
57 57 58 56 53 53 56 52 53 61 68 59 58 54 53 53 60 70 72 73 78 79 79 84 87 89 90 91 91 90 89 88 89 89 89 91 91 92
55 53 53 50 52 51 50 48 54 57 65 58 57 55 66 68 66 67 69 69 73 74 79 81 88 92 92 90 92 91 89 88 89 90 92 94 96 99
50 46 47 44 45 46 48 52 54 56 60 64 61 60 62 63 67 71 69 70 72 73 77 84 89 89 89 91 88 87 86 87 89 91 93 96 97 98
39 38 38 39 44 47 49 55 55 56 54 55 59 55 62 62 64 65 68 71 70 73 80 85 86 84 82 83 84 86 88 91 92 93 94 96 98 100
29 30 32 36 38 43 46 51 53 49 52 57 59 62 62 57 59 66 69 71 79 76 78 78 79 80 81 83 84 86 86 87 87 88 88 88 90 91
24 28 31 33 35 36 43 44 46 50 54 58 62 64 62 63 67 68 76 78 76 76 77 74 75 77 77 78 78 78 78 78 78 77 75 75 76 78
21 26 29 32 36 39 42 43 45 48 56 60 60 65 63 65 66 71 77 82 87 69 71 80 75 77 75 72 71 74 75 73 71 70 70 70 73 78
24 29 32 34 38 40 43 46 49 50 52 56 64 66 66 66 69 75 74 77 77 71 74 77 69 72 68 67 69 69 67 62 58 49 46 53 57 58
28 29 33 36 39 44 47 49 50 48 50 53 57 61 62 62 62 64 64 63 63 62 59 69 66 66 68 65 65 61 52 49 46 41 42 43 48 47
31 32 37 42 45 45 46 48 51 53 50 53 56 56 57 57 52 50 52 54 59 61 58 60 60 67 68 65 52 46 47 48 47 49 45 38 35 34
37 41 41 43 45 47 51 53 57 58 59 56 48 46 42 40 38 36 42 48 55 62 52 54 63 70 64 55 48 53 54 49 51 48 38 30 30 32
42 44 46 50 51 51 51 49 53 52 47 43 40 39 38 38 38 36 37 41 47 49 50 54 62 64 56 59 55 54 55 53 49 47 30 28 27 29
45 46 47 48 50 50 47 45 41 38 36 37 39 39 40 40 40 41 41 42 41 41 44 43 57 57 63 60 58 62 59 58 57 39 25 24 26 47
47 47 48 48 47 44 40 38 33 32 35 37 38 40 41 43 44 45 44 44 43 39 39 39 43 46 56 55 49 56 48 65 41 24 33 34 34 37
45 46 48 46 43 39 36 32 32 35 37 39 42 44 46 44 45 45 49 53 54 50 45 41 37 37 43 43 42 33 33 33 70 57 44 49 48 46
47 46 46 44 41 38 35 32 36 37 39 40 42 45 44 43 44 47 49 55 54 53 59 53 47 40 37 39 37 33 30 29 30 39 42 37 44 45
44 45 42 39 37 35 33 37 38 38 39 41 43 44 44 44 45 48 48 51 57 55 56 56 58 57 49 43 30 32 31 30 32 37 37 34 38 45
43 41 39 35 32 32 36 39 41 40 43 42 44 46 46 44 44 45 49 54 57 58 54 54 54 57 35 35 59 46 34 35 32 37 39 35 32 39
40 37 33 31 30 36 39 40 41 42 42 43 45 47 47 45 44 45 49 52 57 59 52 53 56 53 44 48 55 41 38 31 34 36 40 36 30 29
37 33 29 28 33 37 37 37 35 35 38 41 43 44 46 45 45 45 50 55 53 58 53 52 52 45 54 34 32 34 43 37 33 36 41 36 28 28
33 29 27 27 33 34 34 34 33 31 33 36 39 41 44 46 46 49 51 58 60 56 47 45 47 46 52 37 36 39 38 52 46 38 34 29 24 27
31 27 26 28 32 32 33 34 34 32 30 32 36 38 39 42 41 46 53 55 55 53 46 43 45 55 51 46 41 42 40 47 52 46 42 30 24 31
Wind_Direction
268 269 272 275 276 278 281 285 285 288 292 294 299 297 300 297 299 306 307 306 306 307 307 306 306 305 304 305 304 304 303 302 301 300 299 298 296 295
272 273 275 278 279 284 283 286 291 290 294 296 298 299 301 303 301 303 305 304 304 306 307 304 305 305 304 304 303 303 302 301 300 300 299 297 296 294
276 276 279 280 283 284 285 293 296 296 294 296 300 299 297 300 303 306 306 306 308 307 306 306 305 304 303 304 303 302 302 301 300 299 298 296 294 293
276 277 279 282 284 289 289 293 300 300 298 294 299 300 301 306 305 306 307 307 308 310 309 307 306 306 305 303 304 303 303 302 301 300 298 296 295 293
278 278 281 285 287 290 296 299 305 301 303 304 305 305 306 309 310 310 310 309 310 310 309 309 308 309 308 307 305 304 303 302 301 299 298 296 294 293
287 289 291 293 292 295 297 303 305 309 308 305 308 308 310 313 312 312 311 312 311 314 314 313 312 311 310 308 307 306 304 303 302 301 300 299 297 295
301 303 304 305 303 309 306 309 310 310 309 310 310 310 312 311 310 314 312 314 316 316 315 315 315 314 313 312 311 309 308 308 307 307 306 304 302 299
319 318 319 317 313 314 315 314 314 315 312 311 313 311 313 314 315 315 315 315 314 321 318 316 317 317 317 317 315 313 312 311 311 310 308 306 303 300
330 325 322 323 322 321 318 318 316 316 315 315 312 313 316 317 317 315 315 315 315 318 319 318 323 320 322 321 319 317 316 316 315 312 311 311 309 307
338 337 331 328 328 324 324 322 321 322 321 319 318 318 318 318 318 318 318 319 321 324 328 323 327 325 326 325 323 323 323 322 320 317 315 312 312 308
344 343 336 330 329 330 328 326 325 323 325 323 321 320 319 319 322 326 326 328 328 330 333 330 334 330 329 328 331 332 330 328 324 321 317 307 298 281
343 337 341 339 337 334 330 327 324 325 325 326 330 331 332 335 337 337 335 333 334 336 345 341 336 334 335 339 340 336 331 331 327 323 312 291 278 308
347 343 340 337 335 335 334 333 331 333 335 337 341 341 343 343 343 345 343 340 338 336 338 338 335 334 332 332 336 335 332 331 330 328 312 274 303 308
347 345 343 343 341 340 341 341 345 349 349 346 343 342 342 343 344 342 341 339 337 334 337 339 333 334 329 329 330 333 333 331 329 326 320 311 268 249
349 348 346 345 346 349 352 354 359 358 351 346 345 344 343 341 340 339 340 341 340 339 339 338 334 333 329 327 325 330 333 332 330 311 328 327 324 322
352 349 348 350 353 358 2 4 0 353 349 346 342 341 339 339 339 339 338 340 341 344 346 342 338 335 333 330 328 305 319 323 325 329 330 326 324 321
352 353 352 354 357 358 0 1 352 351 348 347 344 341 340 339 338 338 337 336 338 341 342 346 345 339 331 327 319 314 291 306 320 329 330 323 325 323
355 353 355 357 359 1 1 352 350 350 350 347 345 343 340 338 338 338 338 338 337 340 341 343 344 341 338 334 317 310 316 309 320 328 327 321 322 328
355 356 356 360 2 1 353 350 350 350 348 348 346 343 341 339 338 338 339 338 339 340 341 342 342 342 298 303 339 334 320 322 316 326 329 326 315 325
356 357 360 1 1 353 350 352 353 352 350 347 345 343 341 338 337 337 337 339 339 339 341 342 341 340 336 285 285 326 328 313 323 322 327 327 315 296
357 359 360 1 353 351 353 355 357 355 352 349 346 345 343 340 337 336 336 335 337 338 338 339 340 335 335 302 315 322 335 331 320 319 325 322 302 312
358 0 360 356 350 350 353 355 357 357 354 351 348 345 343 339 335 333 334 334 335 336 333 331 335 337 337 328 303 308 320 337 335 322 312 299 291 327
359 358 356 351 347 347 348 350 351 351 351 348 345 343 342 338 336 333 332 333 333 333 330 325 335 340 335 331 323 322 317 330 337 334 331 321 292 263